Weather History for KPLU - August, 2013

Change the Weather History Date:

Wednesday, August 14, 2013

  Actual Average (KTCM) Record (KTCM)
Temperature  
Mean Temperature 68 °F -  
Max Temperature 84 °F 75 °F 94 °F (2010)
Min Temperature 51 °F 51 °F 44 °F (2003)
Cooling Degree Days 2    
Growing Degree Days 18 (Base 50)    
Moisture  
Dew Point 57 °F    
Average Humidity 78    
Maximum Humidity 100    
Minimum Humidity 30    
Precipitation  
Precipitation 0.01 in - - ()
Sea Level Pressure  
Sea Level Pressure 29.96 in    
Wind  
Wind Speed 0 mph (NNW)    
Max Wind Speed 7 mph    
Max Gust Speed -    
Visibility 10 miles    
Events Rain    
Averages and records for this station are not official NWS values.
T = Trace of Precipitation, MM = Missing Value Source: NWS Daily Summary

Daily Weather History Graph

Daily Weather History Graph

Search for Another Location

Airport or City:

Trip Planner

Search our weather history database for the weather conditions in past years. The results will help you decide how hot, cold, wet, or windy it might be!

Date:

Astronomy

Aug. 14, 2013 Rise Set
Actual Time 6:05 AM PDT 8:21 PM PDT
Civil Twilight 5:31 AM PDT 8:54 PM PDT
Nautical Twilight 4:49 AM PDT 9:36 PM PDT
Astronomical Twilight 4:02 AM PDT 10:23 PM PDT
Moon 2:44 PM PDT (8/14) No Moon Set
Length of Visible Light 15h 23m
Length of Day
14h 15m
First Quarter, 54% of the Moon is Illuminated
Aug 14
First Quarter
Aug 20
Full
Aug 28
Last Quarter
Sep 5
New
Sep 12
First Quarter

Hourly Weather History & Observations

Time (PDT) Temp. Heat Index Dew Point Humidity Pressure Visibility Wind Dir Wind Speed Gust Speed Precip Events Conditions
12:15 AM 59.0 °F - 55.4 °F 88% 29.97 in 10.0 mi Calm Calm - N/A   Mostly Cloudy
12:35 AM 57.2 °F - 55.4 °F 94% 29.97 in 10.0 mi Calm Calm - N/A   Scattered Clouds
12:55 AM 57.2 °F - 55.4 °F 94% 29.97 in 10.0 mi Calm Calm - N/A   Mostly Cloudy
1:15 AM 57.2 °F - 55.4 °F 94% 29.97 in 10.0 mi Calm Calm - N/A   Scattered Clouds
1:35 AM 57.2 °F - 55.4 °F 94% 29.97 in 10.0 mi Calm Calm - N/A   Partly Cloudy
1:55 AM 55.4 °F - 53.6 °F 94% 29.97 in 10.0 mi Calm Calm - N/A   Scattered Clouds
2:15 AM 53.6 °F - 53.6 °F 100% 29.97 in 10.0 mi Calm Calm - N/A   Mostly Cloudy
2:35 AM 55.4 °F - 55.4 °F 100% 29.97 in 10.0 mi Calm Calm - N/A   Mostly Cloudy
2:55 AM 55.4 °F - 53.6 °F 94% 29.97 in 10.0 mi Calm Calm - N/A   Mostly Cloudy
3:15 AM 53.6 °F - 51.8 °F 94% 29.97 in 10.0 mi Calm Calm - N/A   Mostly Cloudy
3:35 AM 53.6 °F - 53.6 °F 100% 29.97 in 10.0 mi Calm Calm - N/A   Mostly Cloudy
3:55 AM 55.4 °F - 53.6 °F 94% 29.97 in 10.0 mi Calm Calm - N/A   Scattered Clouds
4:15 AM 51.8 °F - 51.8 °F 100% 29.96 in 10.0 mi Calm Calm - N/A   Mostly Cloudy
4:35 AM 53.6 °F - 53.6 °F 100% 29.96 in 10.0 mi Calm Calm - N/A   Mostly Cloudy
4:55 AM 53.6 °F - 53.6 °F 100% 29.96 in 10.0 mi Calm Calm - N/A   Mostly Cloudy
5:15 AM 53.6 °F - 53.6 °F 100% 29.96 in 10.0 mi Calm Calm - N/A Rain Light Rain
5:35 AM 53.6 °F - 53.6 °F 100% 29.96 in 10.0 mi Calm Calm - N/A   Mostly Cloudy
5:55 AM 51.8 °F - 51.8 °F 100% 29.96 in 10.0 mi Calm Calm - N/A   Scattered Clouds
6:15 AM 53.6 °F - 53.6 °F 100% 29.96 in 10.0 mi Calm Calm - N/A   Scattered Clouds
6:35 AM 53.6 °F - 53.6 °F 100% 29.96 in 10.0 mi Calm Calm - N/A   Mostly Cloudy
6:55 AM 53.6 °F - 53.6 °F 100% 29.96 in 10.0 mi Calm Calm - N/A   Mostly Cloudy
7:15 AM 55.4 °F - 55.4 °F 100% 29.96 in 10.0 mi Calm Calm - N/A   Partly Cloudy
7:35 AM 57.2 °F - 55.4 °F 94% 29.97 in 10.0 mi Calm Calm - N/A   Scattered Clouds
7:55 AM 60.8 °F - 57.2 °F 88% 29.98 in 10.0 mi Calm Calm - N/A   Scattered Clouds
8:15 AM 64.4 °F - 57.2 °F 77% 29.97 in 10.0 mi Calm Calm - N/A   Scattered Clouds
8:35 AM 66.2 °F - 57.2 °F 73% 29.97 in 10.0 mi Calm Calm - N/A   Scattered Clouds
8:55 AM 66.2 °F - 57.2 °F 73% 29.97 in 10.0 mi Calm Calm - N/A   Scattered Clouds
9:15 AM 68.0 °F - 57.2 °F 68% 29.96 in 10.0 mi Calm Calm - N/A   Scattered Clouds
9:35 AM 68.0 °F - 57.2 °F 68% 29.96 in 10.0 mi Calm Calm - N/A   Scattered Clouds
9:55 AM 71.6 °F - 57.2 °F 60% 29.96 in 10.0 mi Calm Calm - N/A   Scattered Clouds
10:15 AM 71.6 °F - 57.2 °F 60% 29.96 in 10.0 mi NNW 3.5 mph - N/A   Mostly Cloudy
10:35 AM 71.6 °F - 57.2 °F 60% 29.96 in 10.0 mi Calm Calm - N/A   Mostly Cloudy
10:55 AM 73.4 °F - 57.2 °F 57% 29.96 in 10.0 mi Calm Calm - N/A   Mostly Cloudy
11:15 AM 73.4 °F - 57.2 °F 57% 29.96 in 10.0 mi Calm Calm - N/A   Mostly Cloudy
11:35 AM 73.4 °F - 57.2 °F 57% 29.96 in 10.0 mi Calm Calm - N/A   Mostly Cloudy
11:55 AM 75.2 °F - 57.2 °F 53% 29.96 in 10.0 mi Calm Calm - N/A   Mostly Cloudy
12:55 PM 77.0 °F - 57.2 °F 50% 29.95 in 10.0 mi Calm Calm - N/A   Scattered Clouds
1:15 PM 78.8 °F - 55.4 °F 44% 29.94 in 10.0 mi NNW 3.5 mph - N/A   Scattered Clouds
1:35 PM 80.6 °F 80.5 °F 55.4 °F 42% 29.94 in 10.0 mi Calm Calm - N/A   Clear
1:55 PM 82.4 °F 81.7 °F 55.4 °F 39% 29.94 in 10.0 mi Calm Calm - N/A   Partly Cloudy
2:15 PM 82.4 °F 81.7 °F 55.4 °F 39% 29.94 in 10.0 mi Calm Calm - N/A   Scattered Clouds
2:35 PM 84.2 °F 82.8 °F 53.6 °F 35% 29.94 in 10.0 mi Calm Calm - N/A   Scattered Clouds
2:55 PM 84.2 °F 82.8 °F 53.6 °F 35% 29.94 in 10.0 mi Calm Calm - N/A   Mostly Cloudy
3:15 PM 82.4 °F - 50.0 °F 32% 29.94 in 10.0 mi Calm Calm - N/A   Scattered Clouds
3:35 PM 84.2 °F 83.0 °F 55.4 °F 37% 29.94 in 10.0 mi Calm Calm - N/A   Scattered Clouds
3:55 PM 82.4 °F - 48.2 °F 30% 29.94 in 10.0 mi Calm Calm - N/A   Mostly Cloudy
4:15 PM 80.6 °F 80.5 °F 55.4 °F 42% 29.94 in 10.0 mi North 3.5 mph - N/A   Scattered Clouds
4:35 PM 80.6 °F - 51.8 °F 37% 29.94 in 10.0 mi NW 3.5 mph - N/A   Mostly Cloudy
4:55 PM 78.8 °F - 55.4 °F 44% 29.95 in 10.0 mi NW 6.9 mph - N/A   Scattered Clouds
5:15 PM 75.2 °F - 55.4 °F 50% 29.96 in 10.0 mi NW 5.8 mph - N/A   Mostly Cloudy
5:35 PM 73.4 °F - 55.4 °F 53% 29.97 in 10.0 mi Calm Calm - N/A   Mostly Cloudy
5:55 PM 71.6 °F - 55.4 °F 57% 29.97 in 10.0 mi NNW 3.5 mph - N/A   Scattered Clouds
6:15 PM 68.0 °F - 57.2 °F 68% 29.98 in 10.0 mi Calm Calm - N/A   Scattered Clouds
6:35 PM 68.0 °F - 57.2 °F 68% 29.97 in 10.0 mi Calm Calm - N/A   Mostly Cloudy
6:55 PM 66.2 °F - 62.6 °F 88% 29.99 in 10.0 mi Calm Calm - N/A Rain Light Rain
7:15 PM 64.4 °F - 62.6 °F 94% 29.98 in 10.0 mi Calm Calm - N/A Rain Light Rain
7:35 PM 62.6 °F - 62.6 °F 100% 29.98 in 10.0 mi Calm Calm - N/A   Mostly Cloudy
7:55 PM 64.4 °F - 62.6 °F 94% 29.99 in 10.0 mi Calm Calm - N/A   Mostly Cloudy
8:15 PM 64.4 °F - 62.6 °F 94% 30.00 in 10.0 mi Calm Calm - 0.01 in Rain Light Rain
8:35 PM 62.6 °F - 62.6 °F 100% 29.99 in 10.0 mi Calm Calm - 0.01 in Rain Light Rain
8:55 PM 62.6 °F - 62.6 °F 100% 30.00 in 10.0 mi Calm Calm - 0.01 in Rain Light Rain
9:15 PM 62.6 °F - 62.6 °F 100% 29.99 in 10.0 mi Calm Calm - N/A Rain Light Rain
9:35 PM 62.6 °F - 62.6 °F 100% 29.98 in 10.0 mi Calm Calm - N/A Rain Light Rain
9:55 PM 62.6 °F - 62.6 °F 100% 29.97 in 10.0 mi Calm Calm - N/A Rain Light Rain
10:15 PM 62.6 °F - 62.6 °F 100% 29.97 in 10.0 mi Calm Calm - N/A   Mostly Cloudy
10:35 PM 60.8 °F - 60.8 °F 100% 29.97 in 10.0 mi Calm Calm - N/A   Mostly Cloudy
10:55 PM 60.8 °F - 60.8 °F 100% 29.96 in 10.0 mi Calm Calm - N/A   Mostly Cloudy
11:15 PM 60.8 °F - 60.8 °F 100% 29.96 in 10.0 mi Calm Calm - N/A   Mostly Cloudy
11:35 PM 60.8 °F - 60.8 °F 100% 29.96 in 10.0 mi Calm Calm - N/A   Mostly Cloudy
11:55 PM 60.8 °F - 60.8 °F 100% 29.97 in 10.0 mi Calm Calm - N/A Rain Light Rain